Terminal Aerodrome Forecast
Issued by NWS Denver/Boulder, CO

Home | Current Version | Previous Version | Text Only | Print | Product List | Glossary On
Versions: 1 2 3 4 5 6 7 8 9 10 11 12 13 14 15 16 17 18 19 20 21 22 23 24 25 26 27 28 29 30 31 32 33 34 35 36
000
FTUS45 KBOU 241731
TAFDEN
TAF
KDEN 241731Z 2418/2524 14014G23KT P6SM BKN040 BKN070
     FM241900 12013G20KT P6SM VCTS FEW040 SCT070CB BKN120
      TEMPO 2420/2423 VRB18G30KT -TSRA BKN070CB
     FM250000 02012KT P6SM VCSH SCT080 BKN120
     FM250300 32008KT P6SM FEW080 SCT120
     FM250600 23009KT P6SM FEW220
     FM251800 14006KT P6SM FEW080 SCT220=

USA.gov is the U.S. government's official web portal to all federal, state and local government web resources and services.